| time (UTC) | temp C | wind direction | speed KPH | gust KPH | rain 1hr cm | rain 24hr cm | rain mn cm | humidity % | barometer mb |
| 20260505195839 | 26 | 256 | 11.3 | 16.1 | 0.00 | 0.00 | 0.00 | 46 | 1015.3 |
| 20260505195337 | 26 | 258 | 4.8 | 11.3 | 0.00 | 0.00 | 0.00 | 46 | 1015.1 |
| 20260505194834 | 26 | 219 | 8.0 | 11.3 | 0.00 | 0.00 | 0.00 | 46 | 1015.0 |
| 20260505194331 | 26 | 73 | 8.0 | 11.3 | 0.00 | 0.00 | 0.00 | 45 | 1015.6 |
| 20260505193826 | 26 | 30 | 4.8 | 24.1 | 0.00 | 0.00 | 0.00 | 45 | 1015.6 |
| 20260505193324 | 26 | 310 | 8.0 | 12.9 | 0.00 | 0.00 | 0.00 | 47 | 1015.9 |
| 20260505192822 | 26 | 301 | 9.7 | 16.1 | 0.00 | 0.00 | 0.00 | 46 | 1015.9 |
| 20260505192320 | 26 | 247 | 4.8 | 22.5 | 0.00 | 0.00 | 0.00 | 46 | 1015.9 |
| 20260505191817 | 25 | 275 | 8.0 | 11.3 | 0.00 | 0.00 | 0.00 | 48 | 1015.8 |
| 20260505191316 | 27 | 324 | 14.5 | 17.7 | 0.00 | 0.00 | 0.00 | 46 | 1016.0 |
| 20260505190812 | 26 | 337 | 8.0 | 14.5 | 0.00 | 0.00 | 0.00 | 46 | 1015.9 |
| 20260505190308 | 26 | 4 | 3.2 | 16.1 | 0.00 | 0.00 | 0.00 | 47 | 1016.2 |
| 20260505185804 | 26 | 258 | 14.5 | 16.1 | 0.00 | 0.00 | 0.00 | 47 | 1016.2 |
| 20260505185300 | 26 | 221 | 4.8 | 11.3 | 0.00 | 0.00 | 0.00 | 49 | 1016.1 |
| 20260505184756 | 25 | 258 | 9.7 | 14.5 | 0.00 | 0.00 | 0.00 | 48 | 1016.2 |
| 20260505184254 | 25 | 247 | 9.7 | 16.1 | 0.00 | 0.00 | 0.00 | 48 | 1016.2 |
| 20260505183751 | 25 | 227 | 9.7 | 16.1 | 0.00 | 0.00 | 0.00 | 48 | 1016.4 |
| 20260505183248 | 26 | 318 | 3.2 | 11.3 | 0.00 | 0.00 | 0.00 | 49 | 1016.5 |
| 20260505182744 | 26 | 294 | 11.3 | 12.9 | 0.00 | 0.00 | 0.00 | 46 | 1016.4 |
| 20260505182241 | 26 | 296 | 12.9 | 20.9 | 0.00 | 0.00 | 0.00 | 47 | 1016.5 |
| 20260505181737 | 25 | 272 | 4.8 | 11.3 | 0.00 | 0.00 | 0.00 | 49 | 1016.4 |
| 20260505181235 | 26 | 321 | 8.0 | 11.3 | 0.00 | 0.00 | 0.00 | 47 | 1016.5 |
| 20260505180731 | 25 | 280 | 8.0 | 11.3 | 0.00 | 0.00 | 0.00 | 47 | 1016.5 |
| 20260505180228 | 25 | 184 | 9.7 | 17.7 | 0.00 | 0.00 | 0.00 | 48 | 1016.4 |
| 20260505175724 | 25 | 281 | 11.3 | 17.7 | 0.00 | 0.00 | 0.00 | 48 | 1016.6 |
| 20260505175221 | 26 | 45 | 4.8 | 9.7 | 0.00 | 0.00 | 0.00 | 48 | 1016.6 |
| 20260505174717 | 25 | 275 | 4.8 | 11.3 | 0.00 | 0.00 | 0.00 | 49 | 1016.9 |
| 20260505174214 | 25 | 236 | 9.7 | 9.7 | 0.00 | 0.00 | 0.00 | 49 | 1016.6 |
| 20260505173710 | 25 | 53 | 8.0 | 12.9 | 0.00 | 0.00 | 0.00 | 48 | 1016.6 |
| 20260505173207 | 25 | 245 | 8.0 | 11.3 | 0.00 | 0.00 | 0.00 | 48 | 1016.7 |
| 20260505172704 | 25 | 291 | 9.7 | 17.7 | 0.00 | 0.00 | 0.00 | 49 | 1016.8 |
| 20260505172201 | 25 | 277 | 12.9 | 17.7 | 0.00 | 0.00 | 0.00 | 48 | 1016.8 |
| 20260505171701 | 25 | 239 | 16.1 | 20.9 | 0.00 | 0.00 | 0.00 | 49 | 1016.8 |
| 20260505171158 | 25 | 301 | 4.8 | 14.5 | 0.00 | 0.00 | 0.00 | 52 | 1016.7 |
| 20260505170655 | 25 | 255 | 11.3 | 22.5 | 0.00 | 0.00 | 0.00 | 52 | 1016.9 |
| 20260505170152 | 25 | 357 | 8.0 | 12.9 | 0.00 | 0.00 | 0.00 | 51 | 1017.0 |
| 20260505165652 | 25 | 11 | 6.4 | 12.9 | 0.00 | 0.00 | 0.00 | 51 | 1017.1 |
| 20260505165148 | 24 | 270 | 11.3 | 14.5 | 0.00 | 0.00 | 0.00 | 52 | 1017.0 |
| 20260505164644 | 25 | 293 | 11.3 | 16.1 | 0.00 | 0.00 | 0.00 | 53 | 1017.2 |
| 20260505164142 | 25 | 335 | 8.0 | 16.1 | 0.00 | 0.00 | 0.00 | 53 | 1017.1 |
| 20260505163640 | 25 | 297 | 11.3 | 22.5 | 0.00 | 0.00 | 0.00 | 54 | 1017.3 |
| 20260505163137 | 25 | 0 | 12.9 | 16.1 | 0.00 | 0.00 | 0.00 | 55 | 1017.6 |
| 20260505162634 | 24 | 263 | 12.9 | 14.5 | 0.00 | 0.00 | 0.00 | 54 | 1017.4 |
| 20260505162132 | 24 | 317 | 8.0 | 24.1 | 0.00 | 0.00 | 0.00 | 53 | 1017.5 |
| 20260505161629 | 23 | 327 | 6.4 | 11.3 | 0.00 | 0.00 | 0.00 | 55 | 1017.4 |
| 20260505161126 | 23 | 333 | 11.3 | 16.1 | 0.00 | 0.00 | 0.00 | 54 | 1017.7 |
| 20260505160624 | 23 | 132 | 6.4 | 11.3 | 0.00 | 0.00 | 0.00 | 54 | 1017.5 |
| 20260505160121 | 23 | 284 | 11.3 | 16.1 | 0.00 | 0.00 | 0.00 | 57 | 1017.7 |
| 20260505153101 | 23 | 258 | 11.3 | 14.5 | 0.00 | 0.00 | 0.00 | 58 | 1017.9 |
| 20260505152557 | 23 | 346 | 11.3 | 12.9 | 0.00 | 0.00 | 0.00 | 59 | 1017.8 |
| 20260505152053 | 23 | 291 | 9.7 | 12.9 | 0.00 | 0.00 | 0.00 | 59 | 1017.9 |
| 20260505151548 | 22 | 293 | 3.2 | 9.7 | 0.00 | 0.00 | 0.00 | 61 | 1018.0 |
| 20260505151046 | 22 | 318 | 11.3 | 14.5 | 0.00 | 0.00 | 0.00 | 60 | 1017.9 |
| 20260505150542 | 22 | 284 | 4.8 | 11.3 | 0.00 | 0.00 | 0.00 | 62 | 1018.0 |
| 20260505140507 | 20 | 31 | 8.0 | 16.1 | 0.00 | 0.00 | 0.00 | 68 | 1018.1 |
| 20260505124920 | 17 | 97 | 4.8 | 8.0 | 0.00 | 0.00 | 0.00 | 78 | 1017.9 |
| 20260505124417 | 17 | 349 | 6.4 | 12.9 | 0.00 | 0.00 | 0.00 | 79 | 1017.8 |
| 20260505123914 | 16 | 93 | 1.6 | 9.7 | 0.00 | 0.00 | 0.00 | 79 | 1018.0 |
| 20260505123410 | 16 | 154 | 3.2 | 8.0 | 0.00 | 0.00 | 0.00 | 79 | 1017.7 |
| 20260505122906 | 16 | 220 | 6.4 | 8.0 | 0.00 | 0.00 | 0.00 | 80 | 1017.8 |
| 20260505122404 | 15 | 182 | 3.2 | 11.3 | 0.00 | 0.00 | 0.00 | 82 | 1017.9 |
| 20260505121900 | 15 | 231 | 4.8 | 9.7 | 0.00 | 0.00 | 0.00 | 82 | 1017.7 |
| 20260505121357 | 15 | 277 | 4.8 | 9.7 | 0.00 | 0.00 | 0.00 | 83 | 1017.8 |
| 20260505120853 | 15 | 279 | 6.4 | 8.0 | 0.00 | 0.00 | 0.00 | 83 | 1017.9 |
| 20260505120349 | 15 | 190 | 3.2 | 4.8 | 0.00 | 0.00 | 0.00 | 83 | 1017.9 |
| 20260505115848 | 14 | 139 | 0.0 | 4.8 | 0.00 | 0.00 | 0.00 | 84 | 1017.9 |
| 20260505115345 | 14 | 78 | 1.6 | 4.8 | 0.00 | 0.00 | 0.00 | 84 | 1017.9 |
| 20260505114843 | 13 | 143 | 0.0 | 3.2 | 0.00 | 0.00 | 0.00 | 86 | 1017.8 |
| 20260505114340 | 13 | 296 | 0.0 | 1.6 | 0.00 | 0.00 | 0.00 | 88 | 1017.6 |
| 20260505113836 | 12 | 244 | 1.6 | 4.8 | 0.00 | 0.00 | 0.00 | 89 | 1017.5 |
| 20260505113333 | 12 | 146 | 0.0 | 0.0 | 0.00 | 0.00 | 0.00 | 92 | 1017.7 |
| 20260505112828 | 11 | 155 | 1.6 | 1.6 | 0.00 | 0.00 | 0.00 | 94 | 1017.7 |
| 20260505112326 | 11 | 146 | 0.0 | 1.6 | 0.00 | 0.00 | 0.00 | 95 | 1017.5 |
| 20260505111821 | 10 | 136 | 0.0 | 3.2 | 0.00 | 0.00 | 0.00 | 95 | 1017.4 |
| 20260505111317 | 10 | 154 | 0.0 | 1.6 | 0.00 | 0.00 | 0.00 | 95 | 1017.3 |
| 20260505110813 | 10 | 152 | 1.6 | 1.6 | 0.00 | 0.00 | 0.00 | 95 | 1017.3 |
| 20260505110311 | 9 | 127 | 0.0 | 0.0 | 0.00 | 0.00 | 0.00 | 95 | 1017.4 |
| 20260505101745 | 8 | 133 | 0.0 | 0.0 | 0.00 | 0.00 | 0.00 | 95 | 1016.6 |
| 20260505101241 | 8 | 131 | 0.0 | 0.0 | 0.00 | 0.00 | 0.00 | 95 | 1016.7 |
| 20260505100738 | 8 | 135 | 0.0 | 0.0 | 0.00 | 0.00 | 0.00 | 95 | 1016.8 |
| 20260505100234 | 8 | 135 | 0.0 | 0.0 | 0.00 | 0.00 | 0.00 | 95 | 1016.4 |
| 20260505095729 | 9 | 135 | 0.0 | 0.0 | 0.00 | 0.00 | 0.00 | 95 | 1016.4 |
| 20260505095228 | 8 | 133 | 0.0 | 0.0 | 0.00 | 0.00 | 0.00 | 95 | 1016.6 |
| 20260505094723 | 9 | 133 | 0.0 | 0.0 | 0.00 | 0.00 | 0.00 | 95 | 1016.5 |
| 20260505094220 | 9 | 133 | 0.0 | 0.0 | 0.00 | 0.00 | 0.00 | 95 | 1016.5 |
| 20260505093716 | 9 | 133 | 0.0 | 0.0 | 0.00 | 0.00 | 0.00 | 95 | 1016.3 |
| 20260505093214 | 9 | 131 | 0.0 | 0.0 | 0.00 | 0.00 | 0.00 | 95 | 1016.6 |
| 20260505092710 | 10 | 131 | 0.0 | 0.0 | 0.00 | 0.00 | 0.00 | 95 | 1016.6 |
| 20260505092209 | 10 | 135 | 0.0 | 0.0 | 0.00 | 0.00 | 0.00 | 95 | 1016.2 |
| 20260505091706 | 10 | 135 | 0.0 | 0.0 | 0.00 | 0.00 | 0.00 | 95 | 1016.4 |
| 20260505091204 | 10 | 135 | 0.0 | 0.0 | 0.00 | 0.00 | 0.00 | 95 | 1016.4 |
| 20260505090701 | 10 | 135 | 0.0 | 0.0 | 0.00 | 0.00 | 0.00 | 95 | 1016.3 |
| 20260505090159 | 10 | 135 | 0.0 | 0.0 | 0.00 | 0.00 | 0.00 | 95 | 1016.0 |
| 20260505085656 | 10 | 135 | 0.0 | 0.0 | 0.00 | 0.00 | 0.00 | 95 | 1016.2 |
| 20260505085154 | 10 | 131 | 0.0 | 0.0 | 0.00 | 0.00 | 0.00 | 95 | 1016.3 |
| 20260505084651 | 10 | 128 | 0.0 | 0.0 | 0.00 | 0.00 | 0.00 | 95 | 1016.0 |
| 20260505084150 | 10 | 131 | 0.0 | 0.0 | 0.00 | 0.00 | 0.00 | 94 | 1016.2 |
| 20260505083647 | 10 | 133 | 0.0 | 0.0 | 0.00 | 0.00 | 0.00 | 94 | 1016.2 |
| 20260505083144 | 10 | 131 | 0.0 | 0.0 | 0.00 | 0.00 | 0.00 | 93 | 1016.2 |
| 20260505082639 | 10 | 131 | 0.0 | 0.0 | 0.00 | 0.00 | 0.00 | 93 | 1016.2 |
| 20260505082137 | 10 | 130 | 0.0 | 0.0 | 0.00 | 0.00 | 0.00 | 93 | 1016.0 |
| 20260505081632 | 11 | 135 | 0.0 | 0.0 | 0.00 | 0.00 | 0.00 | 92 | 1016.0 |
| 20260505081131 | 11 | 136 | 0.0 | 0.0 | 0.00 | 0.00 | 0.00 | 92 | 1015.9 |
| 20260505080627 | 11 | 131 | 0.0 | 0.0 | 0.00 | 0.00 | 0.00 | 92 | 1016.2 |
| 20260505080123 | 11 | 131 | 0.0 | 0.0 | 0.00 | 0.00 | 0.00 | 92 | 1016.1 |
| 20260505075620 | 11 | 130 | 0.0 | 0.0 | 0.00 | 0.00 | 0.00 | 91 | 1016.1 |
| 20260505075116 | 11 | 142 | 0.0 | 0.0 | 0.00 | 0.00 | 0.00 | 91 | 1016.0 |
| 20260505074613 | 11 | 136 | 0.0 | 0.0 | 0.00 | 0.00 | 0.00 | 90 | 1016.1 |
| 20260505074110 | 11 | 137 | 0.0 | 0.0 | 0.00 | 0.00 | 0.00 | 90 | 1015.8 |
| 20260505073608 | 11 | 137 | 0.0 | 0.0 | 0.00 | 0.00 | 0.00 | 89 | 1016.0 |
| 20260505073106 | 11 | 131 | 0.0 | 0.0 | 0.00 | 0.00 | 0.00 | 87 | 1015.9 |
| 20260505072601 | 11 | 131 | 0.0 | 0.0 | 0.00 | 0.00 | 0.00 | 86 | 1016.0 |
| 20260505072058 | 12 | 133 | 0.0 | 0.0 | 0.00 | 0.00 | 0.00 | 86 | 1015.9 |
| 20260505071553 | 12 | 134 | 0.0 | 0.0 | 0.00 | 0.00 | 0.00 | 85 | 1015.9 |
| 20260505071052 | 12 | 127 | 0.0 | 0.0 | 0.00 | 0.00 | 0.00 | 83 | 1016.1 |
| 20260505070548 | 12 | 131 | 0.0 | 0.0 | 0.00 | 0.00 | 0.00 | 82 | 1016.0 |
| 20260505070044 | 13 | 132 | 0.0 | 0.0 | 0.00 | 0.00 | 0.00 | 80 | 1016.0 |
| 20260505065540 | 13 | 137 | 0.0 | 1.6 | 0.00 | 0.00 | 0.00 | 80 | 1016.0 |
| 20260505065037 | 13 | 137 | 0.0 | 1.6 | 0.00 | 0.00 | 0.00 | 79 | 1015.8 |
| 20260505064534 | 13 | 264 | 3.2 | 3.2 | 0.00 | 0.00 | 0.00 | 79 | 1016.0 |
| 20260505064033 | 13 | 158 | 1.6 | 3.2 | 0.00 | 0.00 | 0.00 | 78 | 1015.7 |
| 20260505063530 | 14 | 143 | 1.6 | 1.6 | 0.00 | 0.00 | 0.00 | 77 | 1015.7 |
| 20260505063025 | 14 | 194 | 1.6 | 3.2 | 0.00 | 0.00 | 0.00 | 77 | 1015.9 |
| 20260505062522 | 14 | 233 | 4.8 | 4.8 | 0.00 | 0.00 | 0.00 | 76 | 1015.7 |
| 20260505062020 | 14 | 153 | 1.6 | 4.8 | 0.00 | 0.00 | 0.00 | 76 | 1015.9 |
| 20260505061517 | 15 | 211 | 4.8 | 4.8 | 0.00 | 0.00 | 0.00 | 75 | 1016.2 |
| 20260505061015 | 15 | 138 | 3.2 | 3.2 | 0.00 | 0.00 | 0.00 | 75 | 1016.0 |
| 20260505060512 | 15 | 236 | 3.2 | 4.8 | 0.00 | 0.00 | 0.00 | 75 | 1016.3 |
| 20260505060009 | 15 | 223 | 4.8 | 4.8 | 0.00 | 0.00 | 0.00 | 74 | 1016.1 |
| 20260505055504 | 15 | 133 | 3.2 | 4.8 | 0.00 | 0.00 | 0.00 | 74 | 1016.3 |
| 20260505055001 | 15 | 180 | 1.6 | 3.2 | 0.00 | 0.00 | 0.00 | 74 | 1016.2 |
| 20260505054458 | 15 | 220 | 3.2 | 3.2 | 0.00 | 0.00 | 0.00 | 75 | 1016.5 |
| 20260505053956 | 15 | 195 | 3.2 | 3.2 | 0.00 | 0.00 | 0.00 | 74 | 1016.2 |
| 20260505053453 | 15 | 41 | 1.6 | 3.2 | 0.00 | 0.00 | 0.00 | 73 | 1016.1 |
| 20260505052950 | 15 | 153 | 0.0 | 1.6 | 0.00 | 0.00 | 0.00 | 73 | 1016.2 |
| 20260505052447 | 15 | 150 | 1.6 | 4.8 | 0.00 | 0.00 | 0.00 | 73 | 1016.3 |
| 20260505051944 | 15 | 152 | 1.6 | 3.2 | 0.00 | 0.00 | 0.00 | 73 | 1016.4 |
| 20260505051441 | 15 | 181 | 1.6 | 3.2 | 0.00 | 0.00 | 0.00 | 72 | 1016.4 |
| 20260505050939 | 15 | 149 | 1.6 | 4.8 | 0.00 | 0.00 | 0.00 | 72 | 1016.4 |
| 20260505050437 | 16 | 144 | 3.2 | 4.8 | 0.00 | 0.00 | 0.00 | 71 | 1016.6 |
| 20260505041404 | 16 | 325 | 4.8 | 8.0 | 0.00 | 0.00 | 0.00 | 68 | 1016.4 |
| 20260505040901 | 17 | 155 | 3.2 | 11.3 | 0.00 | 0.00 | 0.00 | 68 | 1016.3 |
| 20260505040359 | 17 | 273 | 4.8 | 9.7 | 0.00 | 0.00 | 0.00 | 68 | 1016.5 |
| 20260505035855 | 17 | 118 | 3.2 | 8.0 | 0.00 | 0.00 | 0.00 | 67 | 1016.7 |
| 20260505035351 | 17 | 65 | 4.8 | 11.3 | 0.00 | 0.00 | 0.00 | 67 | 1016.5 |
| 20260505034849 | 17 | 255 | 3.2 | 9.7 | 0.00 | 0.00 | 0.00 | 67 | 1016.4 |
| 20260505034345 | 17 | 307 | 4.8 | 8.0 | 0.00 | 0.00 | 0.00 | 66 | 1016.5 |
| 20260505033843 | 17 | 267 | 8.0 | 12.9 | 0.00 | 0.00 | 0.00 | 66 | 1016.5 |
| 20260505033339 | 17 | 259 | 4.8 | 9.7 | 0.00 | 0.00 | 0.00 | 65 | 1016.3 |
| 20260505032838 | 17 | 338 | 3.2 | 11.3 | 0.00 | 0.00 | 0.00 | 66 | 1016.4 |
| 20260505032334 | 17 | 307 | 6.4 | 11.3 | 0.00 | 0.00 | 0.00 | 66 | 1016.3 |
| 20260505031831 | 17 | 251 | 6.4 | 9.7 | 0.00 | 0.00 | 0.00 | 65 | 1016.6 |
| 20260505031327 | 17 | 332 | 9.7 | 12.9 | 0.00 | 0.00 | 0.00 | 65 | 1016.7 |
| 20260505030825 | 17 | 221 | 1.6 | 9.7 | 0.00 | 0.00 | 0.00 | 65 | 1016.7 |
| 20260505030321 | 17 | 79 | 4.8 | 8.0 | 0.00 | 0.00 | 0.00 | 66 | 1016.8 |
| 20260505025816 | 17 | 289 | 3.2 | 8.0 | 0.00 | 0.00 | 0.00 | 65 | 1016.7 |
| 20260505025314 | 18 | 259 | 8.0 | 9.7 | 0.00 | 0.00 | 0.00 | 65 | 1016.3 |
| 20260505024812 | 18 | 296 | 6.4 | 16.1 | 0.00 | 0.00 | 0.00 | 65 | 1016.5 |
| 20260505024310 | 18 | 297 | 6.4 | 14.5 | 0.00 | 0.00 | 0.00 | 64 | 1016.3 |
| 20260505023807 | 18 | 276 | 6.4 | 12.9 | 0.00 | 0.00 | 0.00 | 64 | 1016.5 |
| 20260505023304 | 18 | 160 | 3.2 | 12.9 | 0.00 | 0.00 | 0.00 | 64 | 1016.4 |
| 20260505022801 | 18 | 249 | 6.4 | 8.0 | 0.00 | 0.00 | 0.00 | 64 | 1016.5 |
| 20260505022258 | 18 | 226 | 4.8 | 12.9 | 0.00 | 0.00 | 0.00 | 63 | 1016.2 |
| 20260505021755 | 18 | 230 | 3.2 | 9.7 | 0.00 | 0.00 | 0.00 | 63 | 1016.3 |
| 20260505021251 | 18 | 320 | 6.4 | 9.7 | 0.00 | 0.00 | 0.00 | 63 | 1016.3 |
| 20260505020747 | 18 | 218 | 4.8 | 16.1 | 0.00 | 0.00 | 0.00 | 63 | 1016.2 |
| 20260505020243 | 18 | 273 | 8.0 | 11.3 | 0.00 | 0.00 | 0.00 | 63 | 1016.2 |
| 20260505015740 | 18 | 231 | 6.4 | 14.5 | 0.00 | 0.00 | 0.00 | 62 | 1016.2 |
| 20260505015237 | 18 | 245 | 4.8 | 12.9 | 0.00 | 0.00 | 0.00 | 62 | 1016.2 |
| 20260505014734 | 18 | 268 | 11.3 | 12.9 | 0.00 | 0.00 | 0.00 | 62 | 1016.2 |
| 20260505014231 | 19 | 249 | 4.8 | 11.3 | 0.00 | 0.00 | 0.00 | 62 | 1015.9 |
| 20260505013728 | 19 | 247 | 9.7 | 16.1 | 0.00 | 0.00 | 0.00 | 61 | 1016.2 |
| 20260505013225 | 19 | 301 | 8.0 | 14.5 | 0.00 | 0.00 | 0.00 | 61 | 1016.0 |
| 20260505012723 | 19 | 268 | 3.2 | 8.0 | 0.00 | 0.00 | 0.00 | 63 | 1016.1 |
| 20260505012220 | 19 | 200 | 3.2 | 16.1 | 0.00 | 0.00 | 0.00 | 62 | 1015.7 |
| 20260505011716 | 20 | 290 | 11.3 | 16.1 | 0.00 | 0.00 | 0.00 | 61 | 1015.9 |
| 20260505011214 | 20 | 318 | 4.8 | 11.3 | 0.00 | 0.00 | 0.00 | 62 | 1015.7 |
| 20260505010708 | 20 | 272 | 9.7 | 16.1 | 0.00 | 0.00 | 0.00 | 62 | 1015.5 |
| 20260505010205 | 20 | 312 | 14.5 | 16.1 | 0.00 | 0.00 | 0.00 | 61 | 1015.8 |
| 20260505005702 | 20 | 306 | 6.4 | 11.3 | 0.00 | 0.00 | 0.00 | 62 | 1015.6 |
| 20260505005159 | 20 | 276 | 1.6 | 8.0 | 0.00 | 0.00 | 0.00 | 61 | 1015.3 |
| 20260505004656 | 20 | 282 | 11.3 | 12.9 | 0.00 | 0.00 | 0.00 | 60 | 1015.2 |
| 20260505004152 | 20 | 8 | 3.2 | 11.3 | 0.00 | 0.00 | 0.00 | 60 | 1015.2 |
| 20260505003649 | 21 | 255 | 4.8 | 12.9 | 0.00 | 0.00 | 0.00 | 60 | 1015.0 |
| 20260505003147 | 21 | 284 | 9.7 | 12.9 | 0.00 | 0.00 | 0.00 | 59 | 1015.2 |
| 20260505002643 | 21 | 247 | 11.3 | 16.1 | 0.00 | 0.00 | 0.00 | 58 | 1015.2 |
| 20260505002141 | 21 | 218 | 6.4 | 22.5 | 0.00 | 0.00 | 0.00 | 57 | 1014.9 |
| 20260505001638 | 21 | 238 | 8.0 | 16.1 | 0.00 | 0.00 | 0.00 | 55 | 1015.0 |
| 20260505001136 | 21 | 265 | 8.0 | 11.3 | 0.00 | 0.00 | 0.00 | 53 | 1015.0 |
| 20260505000633 | 22 | 275 | 4.8 | 16.1 | 0.00 | 0.00 | 0.00 | 51 | 1014.9 |
| 20260505000131 | 22 | 179 | 4.8 | 8.0 | 0.00 | 0.00 | 0.00 | 45 | 1014.8 |
| 20260504235626 | 22 | 256 | 1.6 | 4.8 | 0.00 | 0.00 | 0.00 | 44 | 1014.7 |
| 20260504235123 | 22 | 136 | 1.6 | 3.2 | 0.00 | 0.00 | 0.00 | 44 | 1014.5 |
| 20260504234620 | 22 | 292 | 3.2 | 4.8 | 0.00 | 0.00 | 0.00 | 43 | 1014.6 |
| 20260504234118 | 22 | 157 | 4.8 | 4.8 | 0.00 | 0.00 | 0.00 | 43 | 1014.4 |
| 20260504233614 | 23 | 239 | 4.8 | 12.9 | 0.00 | 0.00 | 0.00 | 42 | 1014.4 |
| 20260504233109 | 23 | 314 | 4.8 | 8.0 | 0.00 | 0.00 | 0.00 | 41 | 1014.5 |
| 20260504232607 | 23 | 163 | 1.6 | 4.8 | 0.00 | 0.00 | 0.00 | 41 | 1014.2 |
| 20260504232104 | 23 | 323 | 4.8 | 8.0 | 0.00 | 0.00 | 0.00 | 40 | 1014.4 |
| 20260504231601 | 23 | 175 | 3.2 | 8.0 | 0.00 | 0.00 | 0.00 | 40 | 1014.1 |
| 20260504231057 | 24 | 249 | 3.2 | 9.7 | 0.00 | 0.00 | 0.00 | 39 | 1014.2 |
| 20260504230553 | 24 | 302 | 6.4 | 9.7 | 0.00 | 0.00 | 0.00 | 38 | 1014.1 |
| 20260504230052 | 24 | 288 | 4.8 | 12.9 | 0.00 | 0.00 | 0.00 | 38 | 1014.2 |
| 20260504225549 | 25 | 336 | 6.4 | 9.7 | 0.00 | 0.00 | 0.00 | 38 | 1014.2 |
| 20260504225046 | 25 | 308 | 9.7 | 20.9 | 0.00 | 0.00 | 0.00 | 37 | 1014.2 |
| 20260504224543 | 25 | 272 | 12.9 | 17.7 | 0.00 | 0.00 | 0.00 | 37 | 1014.0 |
| 20260504224040 | 25 | 286 | 6.4 | 12.9 | 0.00 | 0.00 | 0.00 | 38 | 1014.1 |
| 20260504223537 | 25 | 316 | 6.4 | 9.7 | 0.00 | 0.00 | 0.00 | 37 | 1014.0 |
| 20260504223032 | 25 | 141 | 4.8 | 17.7 | 0.00 | 0.00 | 0.00 | 36 | 1014.1 |
| 20260504222530 | 25 | 275 | 4.8 | 16.1 | 0.00 | 0.00 | 0.00 | 36 | 1014.2 |
| 20260504222027 | 25 | 276 | 4.8 | 11.3 | 0.00 | 0.00 | 0.00 | 37 | 1014.2 |
| 20260504221524 | 25 | 247 | 3.2 | 11.3 | 0.00 | 0.00 | 0.00 | 37 | 1014.3 |
| 20260504221021 | 25 | 336 | 8.0 | 14.5 | 0.00 | 0.00 | 0.00 | 35 | 1014.2 |
| 20260504220517 | 25 | 255 | 11.3 | 22.5 | 0.00 | 0.00 | 0.00 | 36 | 1014.2 |
| 20260504220015 | 25 | 275 | 12.9 | 24.1 | 0.00 | 0.00 | 0.00 | 36 | 1014.1 |
| 20260504215511 | 25 | 264 | 4.8 | 14.5 | 0.00 | 0.00 | 0.00 | 36 | 1014.4 |
| 20260504215008 | 25 | 245 | 3.2 | 16.1 | 0.00 | 0.00 | 0.00 | 36 | 1014.0 |
| 20260504214504 | 25 | 140 | 4.8 | 12.9 | 0.00 | 0.00 | 0.00 | 35 | 1014.1 |
| 20260504214000 | 25 | 226 | 3.2 | 14.5 | 0.00 | 0.00 | 0.00 | 36 | 1014.0 |
| 20260504213456 | 25 | 221 | 4.8 | 11.3 | 0.00 | 0.00 | 0.00 | 35 | 1014.2 |
| 20260504212955 | 26 | 8 | 6.4 | 25.7 | 0.00 | 0.00 | 0.00 | 35 | 1014.1 |
| 20260504212450 | 26 | 296 | 6.4 | 11.3 | 0.00 | 0.00 | 0.00 | 36 | 1014.2 |
| 20260504211948 | 25 | 178 | 6.4 | 14.5 | 0.00 | 0.00 | 0.00 | 36 | 1014.3 |
| 20260504211444 | 25 | 285 | 4.8 | 11.3 | 0.00 | 0.00 | 0.00 | 36 | 1014.1 |
| 20260504210942 | 25 | 235 | 6.4 | 14.5 | 0.00 | 0.00 | 0.00 | 36 | 1014.1 |
| 20260504210438 | 26 | 259 | 16.1 | 24.1 | 0.00 | 0.00 | 0.00 | 34 | 1014.3 |
| 20260504205935 | 26 | 243 | 9.7 | 14.5 | 0.00 | 0.00 | 0.00 | 34 | 1014.2 |
| 20260504205433 | 25 | 237 | 6.4 | 14.5 | 0.00 | 0.00 | 0.00 | 35 | 1014.1 |
| 20260504204931 | 26 | 261 | 9.7 | 24.1 | 0.00 | 0.00 | 0.00 | 34 | 1014.2 |
| 20260504204429 | 26 | 166 | 6.4 | 12.9 | 0.00 | 0.00 | 0.00 | 34 | 1014.3 |
| 20260504203928 | 26 | 304 | 6.4 | 11.3 | 0.00 | 0.00 | 0.00 | 35 | 1014.6 |
| 20260504203425 | 26 | 323 | 8.0 | 14.5 | 0.00 | 0.00 | 0.00 | 35 | 1014.5 |
| 20260504202921 | 26 | 347 | 11.3 | 14.5 | 0.00 | 0.00 | 0.00 | 34 | 1014.5 |
| 20260504202418 | 26 | 345 | 6.4 | 12.9 | 0.00 | 0.00 | 0.00 | 35 | 1014.5 |
| 20260504201914 | 26 | 317 | 4.8 | 11.3 | 0.00 | 0.00 | 0.00 | 35 | 1014.7 |
| 20260504201412 | 25 | 301 | 12.9 | 16.1 | 0.00 | 0.00 | 0.00 | 34 | 1014.6 |
| 20260504200909 | 25 | 341 | 6.4 | 20.9 | 0.00 | 0.00 | 0.00 | 36 | 1014.7 |
| 20260504200406 | 25 | 258 | 6.4 | 11.3 | 0.00 | 0.00 | 0.00 | 35 | 1014.4 |